Temperature
8 10 9 10 10 11 11 11 11 11 10 10 11 11 12 11 10 10 10 10 9 9 8 8 9 9 9 9 9 9 9 9 9 9 9 9 9 9 9 9 9 9 9 9
10 9 9 9 9 10 10 11 11 10 9 10 10 11 11 11 10 10 10 10 9 8 8 8 8 8 8 8 8 8 8 8 8 8 8 8 8 8 8 8 8 8 8 8
9 8 8 9 9 9 10 10 10 10 9 9 10 11 12 11 9 9 8 8 8 8 8 8 8 8 8 8 8 8 8 8 8 8 8 8 8 8 8 8 8 8 8 8
8 8 8 9 9 9 9 9 9 9 10 10 10 11 12 11 10 10 9 8 8 8 7 7 7 8 8 8 8 8 8 8 7 7 7 7 7 7 7 7 7 7 7 7
8 8 8 8 8 9 9 8 9 9 9 9 9 10 12 11 11 11 10 9 8 7 7 7 7 7 7 7 7 7 7 7 7 7 7 6 6 6 6 6 6 7 7 7
8 7 8 8 8 8 8 8 8 9 9 9 9 10 12 12 11 11 10 9 8 7 7 7 7 7 7 7 7 7 7 7 7 7 6 6 6 6 6 6 6 6 6 6
8 8 7 7 8 8 8 9 9 10 10 11 9 9 11 12 11 10 10 9 7 7 6 6 6 7 7 6 6 6 6 6 6 6 6 6 6 5 5 5 5 5 6 6
8 8 8 8 8 8 8 9 9 10 11 12 9 9 12 11 9 8 8 8 7 6 6 6 6 6 6 6 6 6 6 6 6 6 6 5 5 5 5 5 5 5 5 5
9 8 7 7 7 8 8 8 8 9 8 9 11 11 11 10 9 9 8 7 7 6 6 6 6 6 6 6 6 6 6 6 6 5 5 5 5 5 4 5 5 5 5 5
7 7 7 7 7 7 8 8 8 8 9 11 11 11 12 11 10 10 9 8 7 6 6 6 6 6 6 6 5 5 5 5 5 5 5 5 5 4 4 4 4 4 5 5
7 7 7 7 7 8 7 7 8 8 8 10 11 12 11 10 10 9 9 8 7 6 6 6 6 6 6 5 5 5 5 5 5 5 4 4 4 4 4 4 4 4 4 4
6 7 7 7 7 7 7 8 8 8 8 8 9 11 11 10 9 8 8 7 6 6 6 6 6 5 5 5 5 5 5 5 5 4 4 4 4 4 4 4 4 4 4 4
6 7 8 8 7 6 6 7 7 7 7 8 9 11 9 8 8 7 7 7 6 6 6 5 5 5 5 5 5 5 5 5 4 4 4 4 4 4 3 3 3 4 3 3
6 6 7 9 9 8 7 7 6 6 7 8 8 10 10 9 9 8 7 7 6 5 5 5 5 5 5 5 5 5 5 4 4 4 4 4 3 3 3 3 3 3 3 3
6 6 6 6 7 6 7 7 6 6 7 8 9 9 10 10 9 8 7 6 5 5 5 5 5 5 5 5 5 5 5 4 4 4 4 3 3 3 3 3 3 3 3 3
5 6 5 6 6 6 6 6 6 6 7 7 8 8 9 9 7 7 6 5 5 5 5 5 5 5 5 5 5 5 4 4 4 4 3 3 3 3 3 2 2 2 2 2
5 5 6 7 6 6 7 8 7 6 7 7 7 8 9 8 7 7 6 5 5 5 5 5 5 5 5 5 5 5 4 4 4 3 3 3 3 2 2 2 2 2 2 2
4 5 5 6 6 6 10 7 7 7 7 7 7 8 8 7 6 5 5 5 5 5 5 5 5 5 5 5 4 4 4 4 3 3 3 3 2 2 2 2 2 2 1 1
4 5 5 5 6 8 9 7 6 6 7 8 7 7 7 5 5 6 6 6 5 5 5 5 5 5 5 4 4 4 4 3 3 3 3 2 2 2 2 2 1 1 1 1
2 4 5 5 5 7 10 7 5 7 8 8 7 7 6 5 7 8 6 6 5 5 5 5 5 4 4 4 4 4 3 3 3 3 2 2 2 2 2 1 1 1 1 0
3 3 4 4 5 7 8 6 5 8 9 7 6 6 5 6 7 6 5 5 5 5 5 5 4 4 4 4 4 4 3 3 3 2 2 2 2 1 1 1 1 0 0 0
4 4 4 4 5 7 7 5 7 9 7 6 6 6 5 5 5 5 5 5 5 5 5 4 4 4 4 4 4 3 3 3 2 2 2 2 1 1 1 1 0 0 -0 -0
4 6 6 6 7 7 5 6 7 6 6 6 5 5 5 4 4 4 4 4 4 4 4 4 4 4 4 3 3 3 3 3 2 2 2 1 1 1 0 0 -0 -0 -1 -1
4 3 4 4 6 6 5 5 6 6 5 5 5 5 4 4 4 4 4 4 4 4 4 4 3 3 3 3 3 3 2 2 2 2 1 1 1 1 0 -0 -0 -1 -1 -1
6 3 3 4 6 6 6 6 6 6 6 5 5 4 4 4 4 3 3 3 3 3 3 3 3 3 3 3 3 2 2 2 2 1 1 1 0 0 0 -0 -1 -1 -1 -2
4 4 5 6 7 7 7 6 6 5 5 5 4 4 4 3 3 3 3 3 3 3 3 3 3 3 3 2 2 2 2 1 1 1 1 0 0 -0 -0 -1 -1 -1 -1 -1
Wind_Speed
2 4 4 3 2 2 5 4 3 1 1 2 5 8 7 6 7 8 7 7 6 5 4 2 2 1 1 2 3 4 4 5 4 3 3 3 4 4 4 4 5 6 6 6
4 4 3 3 4 5 4 4 2 1 1 2 4 9 8 7 7 7 7 7 6 5 4 3 2 1 1 2 3 4 4 4 4 4 4 3 4 4 4 4 5 6 6 6
5 2 2 4 4 4 2 2 2 0 2 1 4 5 5 4 4 5 6 6 6 6 6 4 3 2 2 2 3 3 4 4 4 4 3 3 3 3 3 4 4 5 6 6
4 1 3 4 2 2 1 1 2 1 2 1 2 3 4 4 5 6 6 6 6 5 5 5 4 3 2 2 2 3 3 4 4 4 4 4 4 4 5 5 5 5 6 6
3 1 2 2 1 1 2 1 2 1 1 2 2 4 5 3 6 7 6 5 5 5 5 5 4 3 3 2 2 2 3 4 4 4 4 4 4 4 4 5 5 5 5 6
3 1 1 1 2 2 3 2 2 1 1 3 3 5 5 4 6 5 4 4 5 5 5 5 3 3 2 2 2 2 3 4 4 4 4 4 4 5 5 6 5 5 4 5
2 2 1 1 2 2 2 1 1 2 3 3 2 5 7 3 4 5 5 5 4 5 5 5 4 4 3 3 2 2 3 3 4 4 4 4 4 5 5 5 5 5 5 5
1 1 1 0 1 1 2 2 2 2 3 2 3 6 4 1 2 4 5 5 4 5 4 5 5 5 4 4 3 3 3 3 3 4 4 4 4 4 4 5 5 5 5 5
0 0 1 1 1 1 2 2 1 1 1 4 5 5 6 3 3 3 4 4 4 4 4 5 5 5 5 4 4 4 4 4 3 4 4 4 4 4 5 5 5 5 5 5
1 1 1 1 1 1 1 2 2 2 2 4 4 5 4 4 4 3 3 3 3 3 4 5 5 5 5 5 4 4 3 4 3 3 4 4 5 5 5 5 6 6 6 6
1 1 1 2 4 4 3 3 3 2 3 3 4 3 1 3 3 4 4 4 3 4 5 5 5 5 5 4 4 4 3 3 3 3 4 4 4 5 5 5 6 6 6 6
0 1 3 3 1 2 4 4 5 3 3 4 5 5 1 3 3 5 5 4 4 5 5 5 5 5 5 5 5 4 4 4 4 3 4 4 4 4 5 5 6 6 6 6
1 2 2 2 3 3 4 5 6 4 3 5 6 6 2 2 4 5 6 6 5 5 6 6 5 5 5 5 5 5 4 4 4 3 4 4 4 4 5 5 6 6 6 6
1 3 5 5 3 2 5 7 8 8 6 7 10 12 9 9 9 9 8 8 7 7 7 6 6 6 6 6 5 5 5 4 4 4 4 4 4 4 5 5 5 5 5 5
2 4 5 9 10 9 11 12 12 14 14 11 11 13 15 12 12 11 9 8 7 7 7 7 6 6 6 5 5 5 5 4 4 4 4 4 4 4 4 5 5 5 5 5
2 4 4 7 6 8 13 16 16 16 16 18 18 18 14 12 9 8 8 7 7 7 7 7 7 6 6 6 5 5 5 5 4 5 5 4 4 4 4 4 5 5 5 5
3 3 3 5 5 8 10 11 13 10 11 11 14 12 9 8 8 9 8 8 8 8 7 7 7 7 6 6 6 6 5 4 4 5 4 4 4 4 4 4 4 4 5 5
4 3 3 5 6 7 2 1 6 9 11 13 13 12 10 9 9 10 8 8 8 8 7 7 6 6 6 6 5 5 5 5 5 5 5 5 4 4 4 4 4 5 4 4
7 5 3 3 5 9 7 3 4 6 8 10 13 12 10 7 7 7 5 5 7 7 7 6 6 6 5 5 5 5 5 5 5 6 6 5 5 5 4 5 5 4 4 4
4 5 5 4 5 6 2 2 2 2 5 3 6 8 6 4 6 5 2 4 6 6 6 5 5 5 5 5 5 6 6 6 6 6 6 5 5 5 5 5 5 4 4 5
4 5 8 8 8 9 4 3 4 4 3 1 4 6 5 6 8 7 6 6 7 7 6 5 5 5 5 4 5 6 6 7 7 6 5 5 5 5 5 5 5 4 4 5
8 7 8 7 7 8 4 6 6 5 4 4 6 6 7 9 9 9 8 8 7 7 6 6 5 5 4 4 5 6 7 7 5 5 5 5 5 5 4 5 5 4 4 5
9 8 5 9 9 5 5 8 7 5 7 7 8 9 9 9 10 10 9 9 8 8 7 6 6 5 5 5 6 7 7 5 5 5 5 5 5 5 5 5 5 4 4 4
7 7 7 9 14 14 14 14 13 12 11 11 10 10 9 10 11 11 10 9 8 8 7 6 6 6 6 5 6 7 6 4 5 5 5 5 5 5 4 4 4 4 4 4
9 7 8 13 15 14 13 12 12 11 10 10 10 10 10 10 11 11 10 9 8 7 6 6 6 7 7 6 6 6 5 5 6 6 5 5 5 5 5 5 5 6 6 6
11 12 11 13 13 11 12 9 9 10 11 10 10 10 10 10 10 10 9 9 8 8 7 6 7 7 7 6 6 6 5 6 6 6 5 5 4 4 4 4 5 7 8 9
Wind_Direction
66 104 116 132 133 120 140 150 156 164 341 260 240 251 254 245 232 233 235 234 236 240 246 246 241 253 320 342 346 345 344 347 348 343 336 330 327 325 325 328 326 322 319 315
109 93 105 117 125 126 134 143 135 62 17 288 274 271 262 246 240 239 237 235 235 238 232 226 229 249 289 321 337 338 338 337 339 332 322 310 311 313 316 319 324 323 320 313
99 80 123 126 127 126 120 164 163 202 332 242 297 272 229 219 226 235 235 237 240 238 237 230 230 252 279 309 323 329 332 329 330 328 318 313 308 301 302 313 320 327 324 316
79 58 123 116 102 144 145 146 162 194 257 265 301 272 238 222 232 230 228 227 234 234 234 232 231 243 267 287 304 315 322 326 329 327 317 313 305 305 308 313 313 321 326 324
94 84 110 102 47 103 114 125 162 205 245 268 224 247 253 205 234 232 225 227 231 229 229 229 230 238 253 272 287 301 314 321 328 328 322 313 307 307 309 307 308 316 323 325
83 65 41 66 61 102 136 132 124 151 223 248 219 233 255 214 226 227 221 225 228 226 224 225 226 233 241 259 274 289 303 315 325 327 324 317 310 308 308 308 309 312 314 319
85 89 77 152 143 135 185 197 203 211 224 240 172 238 254 245 225 233 240 242 239 226 221 220 224 231 238 249 266 280 291 303 317 321 322 318 311 307 304 306 307 308 308 311
111 137 114 243 263 195 186 241 259 256 254 270 210 241 255 241 252 254 254 255 248 233 227 229 233 237 240 247 257 270 282 291 304 311 315 315 313 307 304 305 304 304 303 304
6 148 53 346 331 216 177 185 343 290 293 268 247 261 275 214 228 234 240 238 238 232 233 240 241 240 242 245 252 263 274 282 291 301 307 308 310 305 305 305 303 300 299 301
331 260 259 298 201 72 310 162 184 213 254 268 266 256 245 209 218 233 241 243 244 245 248 251 247 244 244 245 248 251 259 271 283 296 301 302 304 304 303 304 304 304 304 301
270 241 232 212 219 211 174 186 213 225 260 269 280 265 207 221 233 254 264 266 263 264 259 255 254 253 251 248 246 246 252 265 276 287 295 299 302 304 305 302 302 303 303 301
338 258 257 247 259 281 234 222 205 232 238 240 272 275 123 233 266 273 276 276 273 269 261 257 255 254 249 244 241 242 245 253 264 274 282 291 298 302 303 305 306 305 303 301
208 230 274 209 186 196 228 222 219 232 249 234 245 261 132 263 280 277 279 285 280 272 265 259 253 250 247 244 240 239 240 245 256 265 274 285 295 301 304 308 309 308 307 307
238 238 241 261 293 226 241 233 215 212 231 243 242 262 268 274 283 290 290 288 283 274 266 261 257 253 249 246 243 241 241 242 248 256 265 276 287 295 301 305 308 310 311 311
238 258 258 269 271 262 257 249 228 225 234 247 260 265 276 282 287 290 288 284 276 272 269 264 263 261 253 249 245 242 239 238 241 247 258 271 283 292 298 303 308 312 315 317
250 265 284 280 266 262 264 254 240 238 242 249 263 274 279 289 288 284 283 275 268 272 272 268 264 260 257 250 245 239 235 233 234 243 255 269 280 287 293 300 304 309 314 317
223 240 275 279 303 295 267 243 221 223 227 233 246 256 276 287 288 289 288 276 269 272 272 266 261 257 254 249 242 237 232 227 230 242 254 263 271 278 286 295 298 302 308 312
210 214 256 288 303 259 259 125 211 227 246 233 245 260 271 281 294 289 278 269 272 275 274 269 265 261 256 249 240 234 227 222 228 239 248 255 263 272 281 286 289 294 299 303
213 214 240 261 278 280 280 234 199 222 268 238 239 256 274 294 295 276 260 259 267 274 274 269 265 264 256 246 234 224 223 225 231 240 247 250 255 263 270 275 281 287 290 295
190 216 236 238 258 262 276 145 168 215 271 232 231 260 277 282 285 297 310 287 280 278 276 272 267 259 251 243 225 220 226 228 235 241 246 249 248 252 259 266 275 280 282 287
183 204 223 233 247 267 272 154 162 229 305 323 253 263 258 254 275 303 306 293 286 283 281 274 264 256 253 242 220 225 231 236 241 241 244 246 245 247 253 263 269 274 279 284
202 200 209 208 225 254 175 162 211 270 315 291 281 273 266 272 284 287 287 285 284 283 278 270 262 261 255 234 220 230 240 244 240 235 239 243 244 245 247 253 262 268 273 278
220 218 219 215 233 277 203 232 266 288 283 285 283 282 277 280 283 283 283 284 280 276 272 264 256 258 255 234 222 235 246 241 229 230 238 243 244 244 247 250 257 263 265 271
235 227 237 254 260 266 265 264 267 267 270 277 280 280 276 277 282 283 281 280 278 273 268 261 255 255 255 244 232 240 245 229 224 233 240 242 242 245 246 248 249 254 256 261
246 214 238 257 269 279 271 260 264 271 273 276 279 277 273 276 279 279 278 277 275 271 265 255 250 254 257 254 245 242 237 222 227 236 239 239 239 243 245 247 250 253 254 258
228 224 235 256 262 266 280 284 279 276 276 275 279 279 278 273 275 276 274 274 272 268 261 253 250 252 255 254 250 243 227 219 225 234 238 237 239 241 246 255 264 251 256 265
Height
1508 1508 1509 1509 1510 1508 1508 1508 1509 1513 1516 1515 1510 1509 1509 1510 1511 1511 1511 1512 1512 1512 1513 1513 1513 1512 1512 1511 1511 1510 1508 1507 1505 1504 1502 1501 1500 1499 1498 1497 1496 1495 1494 1493
1509 1511 1513 1513 1513 1511 1510 1510 1511 1514 1517 1515 1512 1508 1506 1507 1507 1508 1508 1509 1509 1510 1511 1511 1510 1510 1510 1509 1508 1507 1506 1505 1503 1501 1500 1499 1497 1495 1494 1493 1492 1491 1490 1489
1509 1515 1515 1514 1513 1513 1513 1512 1512 1515 1516 1516 1514 1504 1502 1504 1506 1506 1506 1506 1506 1507 1508 1508 1507 1507 1507 1507 1506 1505 1504 1502 1501 1499 1497 1496 1494 1492 1491 1490 1488 1487 1486 1485
1514 1517 1516 1515 1515 1513 1514 1516 1516 1516 1513 1511 1514 1505 1497 1500 1502 1503 1503 1504 1504 1504 1505 1505 1505 1505 1505 1504 1504 1502 1501 1500 1498 1496 1495 1493 1491 1490 1488 1487 1485 1483 1482 1481
1516 1518 1516 1516 1517 1516 1517 1518 1518 1517 1515 1515 1513 1511 1494 1499 1498 1497 1500 1501 1502 1502 1502 1502 1502 1502 1502 1502 1501 1500 1499 1498 1496 1494 1492 1491 1489 1487 1485 1483 1481 1480 1478 1477
1518 1520 1520 1519 1520 1519 1520 1519 1518 1517 1515 1513 1510 1508 1493 1492 1493 1494 1497 1499 1499 1500 1500 1500 1500 1500 1500 1499 1498 1497 1496 1495 1493 1492 1490 1488 1486 1484 1482 1481 1479 1477 1475 1474
1518 1519 1521 1521 1519 1520 1519 1516 1514 1512 1510 1503 1511 1509 1494 1489 1493 1494 1496 1497 1497 1498 1498 1498 1498 1498 1497 1497 1496 1495 1493 1492 1491 1489 1487 1486 1484 1482 1480 1478 1476 1474 1472 1471
1515 1517 1520 1521 1519 1517 1518 1517 1514 1508 1501 1497 1509 1502 1489 1491 1493 1494 1495 1495 1496 1496 1496 1496 1496 1495 1495 1494 1493 1492 1491 1489 1488 1487 1485 1483 1481 1479 1477 1476 1474 1472 1470 1468
1515 1517 1522 1522 1521 1520 1517 1517 1518 1516 1516 1509 1495 1493 1489 1490 1491 1492 1493 1493 1493 1494 1494 1493 1493 1493 1492 1492 1491 1489 1488 1487 1486 1484 1482 1481 1479 1477 1475 1473 1471 1469 1467 1465
1521 1521 1521 1522 1522 1522 1520 1519 1518 1516 1510 1499 1490 1489 1484 1485 1487 1489 1490 1491 1491 1492 1491 1491 1491 1490 1490 1489 1488 1487 1486 1485 1483 1482 1480 1478 1476 1474 1472 1470 1468 1466 1464 1462
1523 1521 1521 1520 1519 1516 1521 1520 1517 1514 1512 1504 1493 1483 1481 1483 1485 1487 1488 1488 1489 1489 1489 1488 1488 1487 1487 1486 1485 1484 1483 1482 1481 1479 1477 1475 1474 1472 1470 1468 1466 1463 1461 1459
1524 1521 1518 1517 1519 1520 1518 1515 1515 1513 1511 1512 1502 1488 1483 1485 1486 1487 1487 1487 1487 1487 1486 1486 1485 1484 1483 1483 1482 1481 1480 1479 1478 1476 1475 1473 1471 1469 1467 1465 1463 1461 1459 1457
1524 1521 1515 1510 1518 1520 1517 1515 1515 1515 1513 1509 1501 1487 1485 1486 1486 1486 1485 1485 1484 1484 1483 1483 1482 1481 1480 1480 1479 1478 1477 1476 1475 1473 1472 1470 1468 1466 1464 1462 1460 1458 1456 1454
1524 1520 1516 1507 1503 1509 1511 1512 1513 1514 1509 1501 1495 1484 1481 1482 1483 1483 1483 1482 1481 1481 1480 1479 1478 1478 1477 1476 1476 1475 1474 1473 1472 1470 1469 1467 1465 1463 1462 1460 1458 1455 1453 1451
1523 1518 1516 1512 1511 1511 1507 1506 1507 1507 1500 1497 1485 1484 1478 1479 1480 1480 1479 1479 1478 1477 1476 1475 1474 1474 1473 1473 1472 1472 1471 1470 1469 1468 1466 1464 1462 1461 1459 1457 1455 1453 1450 1448
1522 1518 1516 1510 1508 1508 1505 1500 1499 1499 1497 1493 1488 1483 1477 1478 1478 1477 1476 1475 1474 1473 1472 1472 1471 1470 1469 1469 1468 1468 1467 1466 1465 1464 1463 1462 1460 1458 1456 1455 1452 1450 1448 1446
1520 1519 1515 1504 1505 1504 1492 1485 1489 1490 1487 1487 1484 1478 1476 1476 1475 1474 1473 1472 1470 1469 1469 1468 1467 1467 1466 1465 1465 1464 1464 1463 1462 1461 1460 1459 1457 1455 1453 1452 1450 1448 1445 1443
1520 1518 1514 1508 1504 1499 1479 1482 1482 1483 1481 1481 1478 1475 1474 1474 1473 1472 1470 1468 1467 1466 1465 1465 1464 1463 1463 1462 1461 1461 1460 1459 1459 1458 1457 1455 1454 1452 1450 1449 1447 1445 1443 1441
1519 1517 1513 1510 1501 1487 1478 1480 1482 1482 1476 1473 1473 1473 1473 1472 1471 1467 1466 1465 1464 1463 1462 1461 1461 1460 1459 1458 1458 1457 1456 1456 1455 1454 1453 1452 1450 1449 1447 1445 1444 1442 1440 1438
1519 1517 1514 1510 1504 1488 1473 1479 1480 1481 1473 1469 1470 1470 1470 1470 1467 1463 1464 1462 1461 1461 1459 1458 1457 1456 1455 1455 1454 1453 1452 1452 1451 1450 1449 1448 1447 1446 1444 1442 1441 1439 1437 1435
1515 1514 1512 1507 1500 1481 1474 1478 1480 1477 1467 1468 1468 1467 1467 1467 1465 1463 1461 1459 1458 1457 1456 1454 1453 1452 1451 1451 1450 1449 1448 1447 1447 1446 1446 1445 1443 1442 1441 1439 1438 1436 1434 1432
1502 1502 1502 1499 1497 1482 1474 1476 1474 1467 1466 1466 1465 1465 1464 1463 1461 1459 1457 1456 1454 1453 1451 1450 1449 1448 1447 1446 1445 1444 1443 1443 1443 1442 1442 1441 1440 1438 1437 1436 1434 1433 1431 1429
1496 1491 1486 1486 1477 1471 1470 1469 1467 1466 1465 1464 1463 1462 1460 1458 1456 1454 1453 1451 1450 1448 1447 1445 1444 1443 1442 1441 1441 1440 1439 1439 1438 1438 1437 1437 1436 1434 1433 1432 1430 1429 1427 1425
1488 1488 1486 1480 1470 1467 1466 1464 1463 1463 1461 1460 1459 1457 1456 1453 1451 1449 1448 1446 1444 1443 1442 1441 1439 1438 1437 1437 1436 1435 1435 1434 1434 1433 1433 1432 1431 1430 1429 1428 1427 1425 1423 1421
1479 1482 1479 1472 1465 1463 1459 1458 1458 1457 1456 1455 1454 1452 1451 1449 1446 1444 1442 1441 1439 1438 1436 1435 1434 1433 1433 1432 1431 1431 1430 1430 1429 1429 1428 1427 1427 1426 1425 1424 1422 1421 1420 1418
1471 1471 1469 1461 1457 1457 1454 1454 1454 1452 1451 1449 1448 1446 1445 1443 1441 1439 1436 1435 1434 1432 1431 1430 1429 1429 1428 1427 1427 1426 1426 1425 1424 1424 1423 1422 1422 1421 1420 1419 1418 1416 1415 1414